FW0923 Weather Reports


time (UTC)temp
C
wind
direction
speed
KPH
gust
KPH
rain 1hr
cm
rain 24hr
cm
rain mn
cm
humidity
%
barometer
mb
20190527133322 27 197 0.0 0.0 0.00 0.00 0.00 81 1018.1
20190527132322 27 176 0.0 1.6 0.00 0.00 0.00 82 1018.0
20190527131325 26 116 0.0 4.8 0.00 0.00 0.00 84 1018.0
20190527130325 26 165 0.0 0.0 0.00 0.00 0.00 85 1017.8
20190527125322 26 155 0.0 0.0 0.00 0.00 0.00 86 1017.8
20190527124326 25 155 0.0 0.0 0.00 0.00 0.00 88 1017.9
20190527123325 25 152 0.0 0.0 0.00 0.00 0.00 89 1017.9
20190527122324 24 152 0.0 0.0 0.00 0.00 0.00 91 1017.9
20190527121328 24 166 0.0 0.0 0.00 0.00 0.00 91 1017.9
20190527120327 23 123 0.0 0.0 0.00 0.00 0.00 92 1017.9
20190527115325 23 131 0.0 0.0 0.00 0.00 0.00 92 1017.7
20190527114328 23 131 0.0 0.0 0.00 0.00 0.00 92 1017.7
20190527113328 22 131 0.0 0.0 0.00 0.00 0.00 92 1017.6
20190527112327 22 131 0.0 0.0 0.00 0.00 0.00 92 1017.5
20190527111327 22 131 0.0 0.0 0.00 0.00 0.00 91 1017.5
20190527110330 22 131 0.0 0.0 0.00 0.00 0.00 91 1017.6
20190527105328 22 131 0.0 0.0 0.00 0.00 0.00 91 1017.6
20190527104328 22 131 0.0 0.0 0.00 0.00 0.00 91 1017.6
20190527103312 22 131 0.0 0.0 0.00 0.00 0.00 90 1017.5
20190527102312 22 131 0.0 0.0 0.00 0.00 0.00 90 1017.4
20190527101312 22 131 0.0 0.0 0.00 0.00 0.00 90 1017.3
20190527100317 22 131 0.0 0.0 0.00 0.00 0.00 90 1017.0
20190527095316 22 131 0.0 0.0 0.00 0.00 0.00 89 1017.0
20190527094316 22 131 0.0 0.0 0.00 0.00 0.00 89 1017.1
20190527093319 22 131 0.0 0.0 0.00 0.00 0.00 89 1017.0
20190527092318 23 131 0.0 0.0 0.00 0.00 0.00 88 1017.0
20190527091318 23 131 0.0 0.0 0.00 0.00 0.00 88 1016.9
20190527090322 23 131 0.0 0.0 0.00 0.00 0.00 88 1016.8
20190527085319 23 131 0.0 0.0 0.00 0.00 0.00 87 1016.8
20190527084318 23 131 0.0 0.0 0.00 0.00 0.00 87 1016.8
20190527083318 23 131 0.0 0.0 0.00 0.00 0.00 86 1016.7
20190527082321 23 131 0.0 0.0 0.00 0.00 0.00 86 1016.6
20190527081320 23 131 0.0 0.0 0.00 0.00 0.00 86 1016.5
20190527080320 24 131 0.0 0.0 0.00 0.00 0.00 86 1016.5
20190527075321 24 131 0.0 0.0 0.00 0.00 0.00 85 1016.4
20190527074320 24 131 0.0 0.0 0.00 0.00 0.00 85 1016.4
20190527073320 24 131 0.0 0.0 0.00 0.00 0.00 85 1016.3
20190527072324 24 131 0.0 0.0 0.00 0.00 0.00 84 1016.4
20190527071323 25 131 0.0 0.0 0.00 0.00 0.00 84 1016.5
20190527070323 25 131 0.0 0.0 0.00 0.00 0.00 83 1016.6
20190527065325 25 131 0.0 0.0 0.00 0.00 0.00 83 1016.6
20190527064325 25 131 0.0 0.0 0.00 0.00 0.00 82 1016.7
20190527063323 25 131 0.0 0.0 0.00 0.00 0.00 82 1016.9
20190527062323 25 131 0.0 0.0 0.00 0.00 0.00 81 1017.0
20190527061327 25 130 0.0 1.6 0.00 0.00 0.00 81 1017.2
20190527060326 25 130 0.0 1.6 0.00 0.00 0.00 80 1017.3
20190527055323 26 136 0.0 3.2 0.00 0.00 0.00 80 1017.4
20190527054326 26 128 0.0 1.6 0.00 0.00 0.00 79 1017.5
20190527053324 26 88 0.0 4.8 0.00 0.00 0.00 79 1017.7
20190527052323 26 121 0.0 3.2 0.00 0.00 0.00 78 1017.9
20190527051326 26 111 0.0 1.6 0.00 0.00 0.00 78 1017.9
20190527050326 26 111 1.6 11.3 0.00 0.00 0.00 77 1018.0
20190527045323 27 125 0.0 4.8 0.00 0.00 0.00 76 1018.1
20190527044327 27 171 0.0 4.8 0.00 0.00 0.00 76 1018.2
20190527043325 27 141 0.0 1.6 0.00 0.00 0.00 75 1018.2
20190527042324 27 128 0.0 9.7 0.00 0.00 0.00 74 1018.1
20190527041324 27 137 1.6 8.0 0.00 0.00 0.00 74 1018.1
20190527040327 27 109 0.0 4.8 0.00 0.00 0.00 74 1018.2
20190527035324 27 133 0.0 6.4 0.00 0.00 0.00 74 1018.2
20190527034324 27 126 0.0 3.2 0.00 0.00 0.00 75 1018.2
20190527033328 27 141 0.0 6.4 0.00 0.00 0.00 77 1018.2
20190527032327 27 86 0.0 0.0 0.00 0.00 0.00 79 1018.2
20190527031327 27 28 0.0 0.0 0.00 0.00 0.00 81 1018.2
20190527030331 27 28 0.0 0.0 0.00 0.00 0.00 82 1018.2
20190527025328 27 10 0.0 0.0 0.00 0.00 0.00 84 1018.2
20190527024328 27 347 0.0 0.0 0.00 0.00 0.00 84 1018.1
20190527023312 27 347 0.0 0.0 0.00 0.00 0.00 84 1018.0
20190527022312 27 347 0.0 0.0 0.00 0.00 0.00 84 1017.9
20190527021331 27 347 0.0 0.0 0.00 0.00 0.00 83 1017.9
20190527020314 27 347 0.0 0.0 0.00 0.00 0.00 83 1017.7
20190527015331 27 347 0.0 0.0 0.00 0.00 0.00 83 1017.4
20190527014331 27 347 0.0 0.0 0.00 0.00 0.00 83 1017.3
20190527013331 27 347 0.0 0.0 0.00 0.00 0.00 83 1017.3
20190527012314 27 347 0.0 0.0 0.00 0.00 0.00 82 1017.4
20190527011314 27 347 0.0 0.0 0.00 0.00 0.00 82 1017.2
20190527010313 28 347 0.0 0.0 0.00 0.00 0.00 82 1017.2
20190527005314 28 347 0.0 0.0 0.00 0.00 0.00 82 1017.2
20190527004314 28 347 0.0 0.0 0.00 0.00 0.00 81 1017.0
20190527003313 28 347 0.0 0.0 0.00 0.00 0.00 81 1016.9
20190527002316 28 347 0.0 0.0 0.00 0.00 0.00 80 1016.8
20190527001316 28 347 0.0 3.2 0.00 0.00 0.00 79 1016.7
20190527000316 28 346 0.0 1.6 0.00 0.00 0.00 78 1016.5
20190526235317 28 346 1.6 3.2 0.00 0.00 0.00 77 1016.6
20190526234317 28 346 0.0 4.8 0.00 0.00 0.00 76 1016.5
20190526233316 29 350 1.6 4.8 0.00 0.00 0.00 75 1016.4
20190526232316 29 348 0.0 6.4 0.00 0.00 0.00 74 1016.3
20190526231320 29 346 0.0 1.6 0.00 0.00 0.00 74 1016.2
20190526230320 30 346 0.0 4.8 0.00 0.00 0.00 73 1016.2
20190526225317 30 346 0.0 4.8 0.00 0.00 0.00 73 1016.1
20190526224320 30 350 1.6 6.4 0.00 0.00 0.00 72 1016.1
20190526223320 30 281 0.0 3.2 0.00 0.00 0.00 71 1016.2
20190526222319 31 317 0.0 3.2 0.00 0.00 0.00 69 1016.2
20190526221322 31 350 3.2 6.4 0.00 0.00 0.00 69 1016.1
20190526220320 31 323 0.0 3.2 0.00 0.00 0.00 69 1016.1
20190526215316 31 329 0.0 4.8 0.00 0.00 0.00 68 1016.1
20190526214321 31 280 0.0 6.4 0.00 0.00 0.00 70 1016.2
20190526213321 31 266 1.6 4.8 0.00 0.00 0.00 69 1016.2
20190526212321 31 274 1.6 6.4 0.00 0.00 0.00 70 1016.3
20190526211321 31 275 1.6 8.0 0.00 0.00 0.00 69 1016.4
20190526210324 31 281 1.6 6.4 0.00 0.00 0.00 68 1016.5
20190526205323 31 277 1.6 8.0 0.00 0.00 0.00 67 1016.5
20190526204323 32 245 0.0 4.8 0.00 0.00 0.00 66 1016.6
20190526203326 32 273 0.0 4.8 0.00 0.00 0.00 67 1016.7
20190526202325 31 269 0.0 6.4 0.00 0.00 0.00 67 1016.8
20190526201326 31 283 1.6 6.4 0.00 0.00 0.00 66 1017.0
20190526200330 31 242 1.6 6.4 0.00 0.00 0.00 68 1017.1
20190526195326 31 252 0.0 11.3 0.00 0.00 0.00 66 1017.2
20190526194328 32 284 1.6 11.3 0.00 0.00 0.00 65 1017.2
20190526193331 33 309 0.0 6.4 0.00 0.00 0.00 61 1017.3
20190526192331 35 273 1.6 6.4 0.00 0.00 0.00 57 1017.4
20190526191329 35 123 1.6 12.9 0.00 0.00 0.00 49 1017.5
20190526190313 34 112 1.6 9.7 0.00 0.00 0.00 51 1017.4
20190526185331 34 75 1.6 9.7 0.00 0.00 0.00 51 1017.6
20190526184331 33 105 3.2 9.7 0.00 0.00 0.00 52 1017.9
20190526183330 33 122 1.6 6.4 0.00 0.00 0.00 54 1017.9
20190526182334 33 127 1.6 12.9 0.00 0.00 0.00 55 1018.0
20190526181331 33 120 0.0 9.7 0.00 0.00 0.00 56 1018.0
20190526180330 33 111 4.8 12.9 0.00 0.00 0.00 55 1018.0
20190526175312 33 217 1.6 9.7 0.00 0.00 0.00 56 1018.1
20190526174312 33 182 1.6 11.3 0.00 0.00 0.00 57 1018.2
20190526173331 33 119 0.0 6.4 0.00 0.00 0.00 58 1018.3
20190526172316 32 169 1.6 8.0 0.00 0.00 0.00 58 1018.5
20190526171317 32 95 0.0 4.8 0.00 0.00 0.00 58 1018.7
20190526170314 32 121 3.2 6.4 0.00 0.00 0.00 59 1018.8
20190526165316 32 114 1.6 9.7 0.00 0.00 0.00 60 1018.9
20190526164317 31 134 3.2 6.4 0.00 0.00 0.00 61 1019.0
20190526163316 31 121 3.2 9.7 0.00 0.00 0.00 61 1019.2
20190526162317 31 139 1.6 11.3 0.00 0.00 0.00 63 1019.2
20190526161320 31 106 1.6 4.8 0.00 0.00 0.00 62 1019.2
20190526160320 31 104 1.6 9.7 0.00 0.00 0.00 64 1019.4
20190526155318 31 119 1.6 11.3 0.00 0.00 0.00 64 1019.7
20190526154323 30 119 1.6 9.7 0.00 0.00 0.00 66 1019.6
20190526153323 30 97 0.0 8.0 0.00 0.00 0.00 68 1019.7
20190526152323 29 102 0.0 6.4 0.00 0.00 0.00 70 1019.7
20190526151327 28 227 3.2 6.4 0.00 0.00 0.00 69 1019.7
20190526150326 28 158 1.6 6.4 0.00 0.00 0.00 70 1019.7
20190526145322 28 106 1.6 11.3 0.00 0.00 0.00 72 1019.7
20190526144325 28 123 4.8 8.0 0.00 0.00 0.00 73 1019.7
20190526143324 27 144 1.6 11.3 0.00 0.00 0.00 74 1019.8
20190526142323 27 124 1.6 9.7 0.00 0.00 0.00 75 1019.8
20190526141324 27 155 0.0 4.8 0.00 0.00 0.00 77 1020.1
20190526140327 27 93 0.0 9.7 0.00 0.00 0.00 76 1020.2
20190526135325 27 116 3.2 6.4 0.00 0.00 0.00 78 1020.1
20190526134326 26 120 0.0 4.8 0.00 0.00 0.00 80 1020.0